BWA216 TBPB-SYEC

Flight info

Callsign BWA216
Flight time 1h 30m
Altitude 16000
Route EGEMA DCT EC120 DCT EC110 DCT EC100
Aircraft AT76/M-SDFGIRY/S

Departure

Time 2026-04-21 15:46
Airport Grantley Adams International Airport (TBPB)

Arrival

Time 2026-04-21 17:16
Airport Eugene F. Correia International Airport (SYEC)
Time Latitude Longitude Altitude Speed Heading
2026-04-21 15:24 13.07867 -59.48816 173 ft 0 kts 346°
2026-04-21 15:42 13.07870 -59.48818 173 ft 3 kts 332°
2026-04-21 15:42 13.07853 -59.48841 173 ft 7 kts 201°
2026-04-21 15:42 13.07796 -59.48857 173 ft 10 kts 195°
2026-04-21 15:42 13.07722 -59.48885 173 ft 13 kts 221°
2026-04-21 15:43 13.07683 -59.49002 173 ft 22 kts 255°
2026-04-21 15:43 13.07642 -59.49167 173 ft 26 kts 256°
2026-04-21 15:43 13.07597 -59.49349 173 ft 26 kts 256°
2026-04-21 15:43 13.07554 -59.49529 172 ft 25 kts 256°
2026-04-21 15:44 13.07511 -59.49703 173 ft 25 kts 256°
2026-04-21 15:44 13.07471 -59.49871 173 ft 24 kts 256°
2026-04-21 15:44 13.07430 -59.50039 173 ft 24 kts 256°
2026-04-21 15:44 13.07384 -59.50188 173 ft 17 kts 227°
2026-04-21 15:45 13.07301 -59.50183 173 ft 10 kts 165°
2026-04-21 15:45 13.07248 -59.50159 174 ft 7 kts 134°
2026-04-21 15:45 13.07240 -59.50118 175 ft 6 kts 78°
2026-04-21 15:45 13.07267 -59.50010 175 ft 38 kts 76°
2026-04-21 15:46 13.07392 -59.49509 173 ft 106 kts 76°
2026-04-21 15:46 13.07610 -59.48671 481 ft 135 kts 76°
2026-04-21 15:46 13.07842 -59.47676 1031 ft 147 kts 87°
2026-04-21 15:46 13.07508 -59.46684 1697 ft 157 kts 133°
2026-04-21 15:47 13.06485 -59.46265 2303 ft 166 kts 167°
2026-04-21 15:47 13.05279 -59.46107 2795 ft 183 kts 173°
2026-04-21 15:47 13.03969 -59.46036 3247 ft 196 kts 174°
2026-04-21 15:47 13.02556 -59.45984 3704 ft 206 kts 176°
2026-04-21 15:48 13.01600 -59.45956 4015 ft 211 kts 177°
2026-04-21 15:48 12.99604 -59.45898 4646 ft 218 kts 177°
2026-04-21 15:48 12.98073 -59.45847 5104 ft 222 kts 177°
2026-04-21 15:48 12.97021 -59.45806 5415 ft 225 kts 177°
2026-04-21 15:49 12.95460 -59.45739 5877 ft 227 kts 177°
2026-04-21 15:49 12.93865 -59.45660 6348 ft 229 kts 177°
2026-04-21 15:49 12.92272 -59.45571 6792 ft 230 kts 177°
2026-04-21 15:49 12.90676 -59.45473 7174 ft 233 kts 179°
2026-04-21 15:50 12.89045 -59.45407 7529 ft 237 kts 179°
2026-04-21 15:50 12.87393 -59.45296 7885 ft 240 kts 176°
2026-04-21 15:50 12.85713 -59.45077 8244 ft 242 kts 173°
2026-04-21 15:50 12.84054 -59.44763 8606 ft 243 kts 171°
2026-04-21 15:51 12.82383 -59.44411 8986 ft 245 kts 171°
2026-04-21 15:51 12.80727 -59.44056 9357 ft 245 kts 171°
2026-04-21 15:51 12.79037 -59.43715 9745 ft 246 kts 172°
2026-04-21 15:51 12.77358 -59.43393 10099 ft 246 kts 172°
2026-04-21 15:52 12.75682 -59.43073 10443 ft 246 kts 172°
2026-04-21 15:52 12.73985 -59.42747 10794 ft 246 kts 172°
2026-04-21 15:52 12.72324 -59.42428 11141 ft 246 kts 172°
2026-04-21 15:52 12.70624 -59.42100 11499 ft 246 kts 172°
2026-04-21 15:53 12.68931 -59.41776 11864 ft 246 kts 172°
2026-04-21 15:53 12.67252 -59.41455 12228 ft 246 kts 172°
2026-04-21 15:53 12.65582 -59.41132 12597 ft 245 kts 172°
2026-04-21 15:53 12.63917 -59.40813 12969 ft 245 kts 172°
2026-04-21 15:54 12.62244 -59.40494 13347 ft 244 kts 172°
2026-04-21 15:54 12.60563 -59.40169 13736 ft 243 kts 172°
2026-04-21 15:54 12.58917 -59.39854 14080 ft 241 kts 172°
2026-04-21 15:54 12.57259 -59.39535 14424 ft 240 kts 172°
2026-04-21 15:55 12.55636 -59.39224 14746 ft 240 kts 172°
2026-04-21 15:55 12.53960 -59.38905 14902 ft 248 kts 172°
2026-04-21 15:55 12.52261 -59.38578 15067 ft 253 kts 172°
2026-04-21 15:55 12.50518 -59.38244 15232 ft 256 kts 172°
2026-04-21 15:56 12.48748 -59.37905 15397 ft 259 kts 171°
2026-04-21 15:56 12.46971 -59.37563 15564 ft 261 kts 172°
2026-04-21 15:56 12.45165 -59.37218 15729 ft 263 kts 172°
2026-04-21 15:56 12.43355 -59.36872 15878 ft 265 kts 171°
2026-04-21 15:57 12.41533 -59.36524 15946 ft 270 kts 172°
2026-04-21 15:57 12.39679 -59.36168 15979 ft 274 kts 172°
2026-04-21 15:57 12.37810 -59.35811 15994 ft 278 kts 171°
2026-04-21 15:57 12.35899 -59.35444 15995 ft 281 kts 172°
2026-04-21 15:58 12.33931 -59.35067 16007 ft 284 kts 172°
2026-04-21 15:58 12.31989 -59.34697 16011 ft 286 kts 171°
2026-04-21 15:58 12.30044 -59.34327 16009 ft 287 kts 171°
2026-04-21 15:58 12.28058 -59.33945 16016 ft 288 kts 171°
2026-04-21 15:59 12.26098 -59.33569 16010 ft 289 kts 171°
2026-04-21 15:59 12.24137 -59.33193 16013 ft 290 kts 171°
2026-04-21 15:59 12.22153 -59.32814 16004 ft 290 kts 171°
2026-04-21 15:59 12.20167 -59.32434 16017 ft 290 kts 171°
2026-04-21 16:00 12.18166 -59.32051 16013 ft 291 kts 171°
2026-04-21 16:00 12.16189 -59.31674 16009 ft 291 kts 171°
2026-04-21 16:00 12.14176 -59.31289 16017 ft 291 kts 171°
2026-04-21 16:00 12.12209 -59.30912 16018 ft 291 kts 171°
2026-04-21 16:01 12.10209 -59.30530 16013 ft 291 kts 171°
2026-04-21 16:01 12.08211 -59.30150 16014 ft 292 kts 171°
2026-04-21 16:01 12.06231 -59.29772 16017 ft 292 kts 171°
2026-04-21 16:01 12.04217 -59.29387 16015 ft 292 kts 171°
2026-04-21 16:02 12.02248 -59.29011 16013 ft 291 kts 172°
2026-04-21 16:02 12.00237 -59.28627 16019 ft 292 kts 171°
2026-04-21 16:02 11.98247 -59.28247 16020 ft 292 kts 171°
2026-04-21 16:02 11.96262 -59.27868 16025 ft 291 kts 172°
2026-04-21 16:03 11.94256 -59.27485 16020 ft 292 kts 171°
2026-04-21 16:03 11.92265 -59.27105 16023 ft 292 kts 171°
2026-04-21 16:03 11.90271 -59.26725 16013 ft 291 kts 171°
2026-04-21 16:03 11.88277 -59.26345 16018 ft 291 kts 172°
2026-04-21 16:04 11.86293 -59.25966 16018 ft 291 kts 172°
2026-04-21 16:04 11.84287 -59.25583 16017 ft 291 kts 172°
2026-04-21 16:04 11.82289 -59.25202 16016 ft 291 kts 172°
2026-04-21 16:04 11.80317 -59.24825 16009 ft 291 kts 172°
2026-04-21 16:05 11.78330 -59.24447 16015 ft 291 kts 171°
2026-04-21 16:05 11.76319 -59.24064 16018 ft 291 kts 171°
2026-04-21 16:05 11.74327 -59.23685 16018 ft 291 kts 171°
2026-04-21 16:05 11.72345 -59.23308 16018 ft 291 kts 171°
2026-04-21 16:06 11.70343 -59.22927 16015 ft 291 kts 172°
2026-04-21 16:06 11.68363 -59.22550 16006 ft 291 kts 172°
2026-04-21 16:06 11.66367 -59.22169 16018 ft 291 kts 172°
2026-04-21 16:06 11.64376 -59.21790 16019 ft 291 kts 172°
2026-04-21 16:07 11.62376 -59.21408 16016 ft 291 kts 172°
2026-04-21 16:07 11.60387 -59.21030 16011 ft 291 kts 171°
2026-04-21 16:07 11.58401 -59.20653 16016 ft 291 kts 172°
2026-04-21 16:07 11.56420 -59.20277 16018 ft 291 kts 172°
2026-04-21 16:08 11.52424 -59.19515 16017 ft 291 kts 172°
2026-04-21 16:08 11.50440 -59.19137 16014 ft 291 kts 172°
2026-04-21 16:08 11.48440 -59.18757 16012 ft 291 kts 172°
2026-04-21 16:09 11.46471 -59.18382 16017 ft 291 kts 172°
2026-04-21 16:09 11.44474 -59.18003 16015 ft 291 kts 172°
2026-04-21 16:09 11.42490 -59.17627 16008 ft 291 kts 172°
2026-04-21 16:09 11.40494 -59.17247 16016 ft 291 kts 172°
2026-04-21 16:10 11.38509 -59.16869 16008 ft 291 kts 172°
2026-04-21 16:10 11.36519 -59.16491 16014 ft 291 kts 172°
2026-04-21 16:10 11.34527 -59.16112 16003 ft 291 kts 172°
2026-04-21 16:10 11.32535 -59.15734 16004 ft 291 kts 172°
2026-04-21 16:11 11.30551 -59.15356 16012 ft 291 kts 172°
2026-04-21 16:11 11.28551 -59.14978 16012 ft 291 kts 172°
2026-04-21 16:11 11.26558 -59.14600 16007 ft 291 kts 172°
2026-04-21 16:11 11.24591 -59.14226 16007 ft 291 kts 172°
2026-04-21 16:12 11.23242 -59.13969 16000 ft 291 kts 172°
2026-04-21 16:12 11.20606 -59.13468 16011 ft 291 kts 172°
2026-04-21 16:12 11.18612 -59.13090 16011 ft 291 kts 172°
2026-04-21 16:12 11.16615 -59.12711 16013 ft 291 kts 172°
2026-04-21 16:13 11.14634 -59.12336 16011 ft 291 kts 172°
2026-04-21 16:13 11.12649 -59.11960 16011 ft 291 kts 172°
2026-04-21 16:13 11.10670 -59.11584 16013 ft 291 kts 172°
2026-04-21 16:13 11.08664 -59.11203 16012 ft 291 kts 172°
2026-04-21 16:14 11.06690 -59.10828 16012 ft 291 kts 172°
2026-04-21 16:14 11.04686 -59.10448 16009 ft 291 kts 172°
2026-04-21 16:14 11.02705 -59.10074 16008 ft 291 kts 171°
2026-04-21 16:14 11.00710 -59.09696 16007 ft 291 kts 172°
2026-04-21 16:15 10.98710 -59.09318 16007 ft 291 kts 172°
2026-04-21 16:15 10.96742 -59.08944 16010 ft 291 kts 172°
2026-04-21 16:15 10.94750 -59.08566 16007 ft 291 kts 172°
2026-04-21 16:15 10.92763 -59.08190 16004 ft 291 kts 172°
2026-04-21 16:16 10.90775 -59.07812 15997 ft 291 kts 172°
2026-04-21 16:16 10.88790 -59.07436 16000 ft 291 kts 172°
2026-04-21 16:16 10.86805 -59.07061 15999 ft 291 kts 172°
2026-04-21 16:16 10.84806 -59.06683 15997 ft 291 kts 172°
2026-04-21 16:17 10.82824 -59.06307 16003 ft 291 kts 172°
2026-04-21 16:17 10.80826 -59.05929 16003 ft 291 kts 172°
2026-04-21 16:17 10.78834 -59.05553 16001 ft 291 kts 171°
2026-04-21 16:17 10.76847 -59.05177 15999 ft 291 kts 172°
2026-04-21 16:18 10.74881 -59.04806 15996 ft 290 kts 172°
2026-04-21 16:18 10.72902 -59.04430 16004 ft 290 kts 172°
2026-04-21 16:18 10.70898 -59.04050 16007 ft 290 kts 172°
2026-04-21 16:18 10.68914 -59.03675 16006 ft 290 kts 172°
2026-04-21 16:19 10.66917 -59.03297 16006 ft 290 kts 172°
2026-04-21 16:19 10.64936 -59.02924 16005 ft 290 kts 171°
2026-04-21 16:19 10.62976 -59.02552 15998 ft 290 kts 171°
2026-04-21 16:19 10.60985 -59.02177 15996 ft 290 kts 171°
2026-04-21 16:20 10.58990 -59.01800 16001 ft 290 kts 171°
2026-04-21 16:20 10.57011 -59.01427 15995 ft 290 kts 172°
2026-04-21 16:20 10.55014 -59.01048 16001 ft 290 kts 172°
2026-04-21 16:20 10.53019 -59.00670 16000 ft 290 kts 172°
2026-04-21 16:21 10.51057 -59.00299 16005 ft 290 kts 172°
2026-04-21 16:21 10.49050 -58.99921 16004 ft 290 kts 171°
2026-04-21 16:21 10.47082 -58.99549 16002 ft 290 kts 171°
2026-04-21 16:21 10.45092 -58.99173 16002 ft 290 kts 171°
2026-04-21 16:22 10.43124 -58.98803 15997 ft 290 kts 172°
2026-04-21 16:22 10.41137 -58.98429 16001 ft 290 kts 172°
2026-04-21 16:22 10.39169 -58.98056 16003 ft 290 kts 171°
2026-04-21 16:22 10.37165 -58.97679 16005 ft 290 kts 172°
2026-04-21 16:23 10.35185 -58.97303 15997 ft 290 kts 171°
2026-04-21 16:23 10.33189 -58.96926 15996 ft 290 kts 171°
2026-04-21 16:23 10.31203 -58.96554 16000 ft 290 kts 172°
2026-04-21 16:23 10.29218 -58.96179 16003 ft 290 kts 172°
2026-04-21 16:24 10.27234 -58.95804 16000 ft 290 kts 172°
2026-04-21 16:24 10.25267 -58.95433 15996 ft 290 kts 171°
2026-04-21 16:24 10.23272 -58.95058 16002 ft 290 kts 171°
2026-04-21 16:24 10.21288 -58.94685 15996 ft 290 kts 171°
2026-04-21 16:25 10.19308 -58.94309 15998 ft 290 kts 172°
2026-04-21 16:25 10.17335 -58.93937 15991 ft 290 kts 171°
2026-04-21 16:25 10.15328 -58.93560 16000 ft 290 kts 171°
2026-04-21 16:25 10.13360 -58.93190 15999 ft 290 kts 172°
2026-04-21 16:26 10.11375 -58.92814 15987 ft 290 kts 172°
2026-04-21 16:26 10.09385 -58.92439 15996 ft 290 kts 172°
2026-04-21 16:26 10.07399 -58.92065 15991 ft 290 kts 171°
2026-04-21 16:26 10.05419 -58.91693 15992 ft 290 kts 171°
2026-04-21 16:27 10.03436 -58.91320 15995 ft 290 kts 172°
2026-04-21 16:27 10.01457 -58.90947 15994 ft 290 kts 172°
2026-04-21 16:27 9.99467 -58.90571 15992 ft 290 kts 171°
2026-04-21 16:27 9.97482 -58.90199 15986 ft 290 kts 171°
2026-04-21 16:28 9.95508 -58.89826 15994 ft 290 kts 171°
2026-04-21 16:28 9.93505 -58.89450 15991 ft 290 kts 172°
2026-04-21 16:28 9.91521 -58.89075 15995 ft 290 kts 171°
2026-04-21 16:28 9.89542 -58.88705 15995 ft 290 kts 171°
2026-04-21 16:29 9.88219 -58.88454 15993 ft 290 kts 171°
2026-04-21 16:29 9.85589 -58.87958 15993 ft 290 kts 171°
2026-04-21 16:29 9.83611 -58.87589 15999 ft 290 kts 171°
2026-04-21 16:29 9.81615 -58.87210 15995 ft 290 kts 172°
2026-04-21 16:30 9.79614 -58.86835 15992 ft 290 kts 171°
2026-04-21 16:30 9.77636 -58.86462 15998 ft 290 kts 171°
2026-04-21 16:30 9.75675 -58.86096 15998 ft 290 kts 171°
2026-04-21 16:30 9.73690 -58.85721 15997 ft 290 kts 171°
2026-04-21 16:31 9.71706 -58.85348 15985 ft 290 kts 171°
2026-04-21 16:31 9.69705 -58.84975 15992 ft 290 kts 171°
2026-04-21 16:31 9.67715 -58.84598 15992 ft 290 kts 171°
2026-04-21 16:31 9.65749 -58.84232 15987 ft 290 kts 171°
2026-04-21 16:32 9.63749 -58.83853 15989 ft 290 kts 171°
2026-04-21 16:32 9.61750 -58.83478 15989 ft 291 kts 171°
2026-04-21 16:32 9.59774 -58.83108 15984 ft 290 kts 171°
2026-04-21 16:32 9.57794 -58.82737 15990 ft 290 kts 171°
2026-04-21 16:33 9.55797 -58.82361 15990 ft 290 kts 171°
2026-04-21 16:33 9.53824 -58.81989 15992 ft 290 kts 172°
2026-04-21 16:33 9.52505 -58.81743 15993 ft 290 kts 171°
2026-04-21 16:33 9.49844 -58.81243 15992 ft 290 kts 171°
2026-04-21 16:34 9.47873 -58.80874 15990 ft 290 kts 172°
2026-04-21 16:34 9.45891 -58.80502 15993 ft 290 kts 171°
2026-04-21 16:34 9.44543 -58.80248 15991 ft 290 kts 171°
2026-04-21 16:34 9.42559 -58.79876 15988 ft 290 kts 172°
2026-04-21 16:35 9.39932 -58.79382 15986 ft 291 kts 171°
2026-04-21 16:35 9.37947 -58.79012 15984 ft 291 kts 171°
2026-04-21 16:35 9.36617 -58.78761 15993 ft 291 kts 171°
2026-04-21 16:35 9.34606 -58.78383 15991 ft 290 kts 171°
2026-04-21 16:36 9.32619 -58.78011 15990 ft 290 kts 171°
2026-04-21 16:36 9.30630 -58.77639 15989 ft 291 kts 171°
2026-04-21 16:36 9.28670 -58.77272 15990 ft 290 kts 171°
2026-04-21 16:36 9.26660 -58.76893 15990 ft 291 kts 171°
2026-04-21 16:37 9.24693 -58.76525 15988 ft 291 kts 171°
2026-04-21 16:37 9.22687 -58.76150 15983 ft 291 kts 171°
2026-04-21 16:37 9.20712 -58.75779 15983 ft 291 kts 171°
2026-04-21 16:37 9.18716 -58.75405 15984 ft 291 kts 171°
2026-04-21 16:38 9.16748 -58.75038 15985 ft 291 kts 171°
2026-04-21 16:38 9.14747 -58.74662 15985 ft 291 kts 171°
2026-04-21 16:38 9.14074 -58.74536 15988 ft 291 kts 171°
2026-04-21 16:38 9.12851 -58.74305 15985 ft 291 kts 171°
2026-04-21 16:39 9.10857 -58.73933 15987 ft 291 kts 171°
2026-04-21 16:39 9.08849 -58.73558 15986 ft 291 kts 171°
2026-04-21 16:39 9.06869 -58.73185 15989 ft 291 kts 171°
2026-04-21 16:39 9.04885 -58.72815 15986 ft 290 kts 171°
2026-04-21 16:40 9.02902 -58.72442 15984 ft 290 kts 171°
2026-04-21 16:40 9.00928 -58.72075 15988 ft 290 kts 171°
2026-04-21 16:40 8.98922 -58.71699 15988 ft 290 kts 171°
2026-04-21 16:40 8.96938 -58.71328 15982 ft 290 kts 171°
2026-04-21 16:41 8.94964 -58.70959 15983 ft 290 kts 171°
2026-04-21 16:41 8.92978 -58.70586 15984 ft 290 kts 171°
2026-04-21 16:41 8.90992 -58.70210 15983 ft 290 kts 171°
2026-04-21 16:41 8.88997 -58.69825 15985 ft 290 kts 171°
2026-04-21 16:42 8.87019 -58.69438 15986 ft 291 kts 171°
2026-04-21 16:42 8.85032 -58.69053 15985 ft 291 kts 171°
2026-04-21 16:42 8.83055 -58.68670 15985 ft 291 kts 171°
2026-04-21 16:42 8.81064 -58.68284 15984 ft 291 kts 171°
2026-04-21 16:43 8.79069 -58.67897 15981 ft 291 kts 171°
2026-04-21 16:43 8.77093 -58.67516 15980 ft 291 kts 171°
2026-04-21 16:43 8.75111 -58.67131 15979 ft 291 kts 171°
2026-04-21 16:43 8.73113 -58.66742 15983 ft 291 kts 171°
2026-04-21 16:44 8.71150 -58.66364 15984 ft 291 kts 171°
2026-04-21 16:44 8.69160 -58.65977 15978 ft 291 kts 171°
2026-04-21 16:44 8.67162 -58.65593 15982 ft 291 kts 171°
2026-04-21 16:44 8.65182 -58.65208 15983 ft 291 kts 171°
2026-04-21 16:45 8.63207 -58.64826 15982 ft 291 kts 171°
2026-04-21 16:45 8.61201 -58.64440 15981 ft 290 kts 171°
2026-04-21 16:45 8.59235 -58.64058 15982 ft 291 kts 171°
2026-04-21 16:45 8.57254 -58.63676 15980 ft 290 kts 171°
2026-04-21 16:46 8.55247 -58.63286 15982 ft 291 kts 171°
2026-04-21 16:46 8.53286 -58.62907 15979 ft 290 kts 171°
2026-04-21 16:46 8.51276 -58.62518 15979 ft 291 kts 171°
2026-04-21 16:46 8.49302 -58.62136 15982 ft 290 kts 171°
2026-04-21 16:47 8.47317 -58.61752 15984 ft 290 kts 171°
2026-04-21 16:47 8.45343 -58.61371 15983 ft 290 kts 171°
2026-04-21 16:47 8.43339 -58.60982 15985 ft 291 kts 171°
2026-04-21 16:47 8.41379 -58.60605 15982 ft 291 kts 171°
2026-04-21 16:48 8.39390 -58.60218 15983 ft 291 kts 171°
2026-04-21 16:48 8.37395 -58.59834 15982 ft 290 kts 171°
2026-04-21 16:48 8.35418 -58.59452 15980 ft 290 kts 171°
2026-04-21 16:48 8.33444 -58.59069 15981 ft 291 kts 171°
2026-04-21 16:49 8.31452 -58.58685 15984 ft 291 kts 171°
2026-04-21 16:49 8.29463 -58.58299 15978 ft 291 kts 171°
2026-04-21 16:49 8.27476 -58.57917 15980 ft 290 kts 171°
2026-04-21 16:49 8.25502 -58.57536 15979 ft 290 kts 171°
2026-04-21 16:50 8.23494 -58.57147 15978 ft 290 kts 171°
2026-04-21 16:50 8.21512 -58.56766 15980 ft 290 kts 171°
2026-04-21 16:50 8.19537 -58.56383 15980 ft 290 kts 171°
2026-04-21 16:50 8.17529 -58.55995 15980 ft 290 kts 171°
2026-04-21 16:51 8.15565 -58.55616 15980 ft 290 kts 171°
2026-04-21 16:51 8.13579 -58.55232 15981 ft 290 kts 171°
2026-04-21 16:51 8.11607 -58.54852 15980 ft 290 kts 171°
2026-04-21 16:51 8.09617 -58.54469 15979 ft 290 kts 171°
2026-04-21 16:52 8.07623 -58.54083 15981 ft 290 kts 171°
2026-04-21 16:52 8.05650 -58.53701 15979 ft 290 kts 171°
2026-04-21 16:52 8.03669 -58.53321 15977 ft 290 kts 171°
2026-04-21 16:52 8.01733 -58.52946 15977 ft 290 kts 171°
2026-04-21 16:53 7.99753 -58.52564 15976 ft 290 kts 171°
2026-04-21 16:53 7.97797 -58.52187 15975 ft 290 kts 171°
2026-04-21 16:53 7.95793 -58.51800 15980 ft 290 kts 171°
2026-04-21 16:53 7.93818 -58.51421 15976 ft 290 kts 171°
2026-04-21 16:54 7.91855 -58.51040 15976 ft 290 kts 171°
2026-04-21 16:54 7.89860 -58.50655 15977 ft 290 kts 171°
2026-04-21 16:54 7.87890 -58.50277 15974 ft 290 kts 171°
2026-04-21 16:54 7.85899 -58.49894 15978 ft 290 kts 171°
2026-04-21 16:55 7.83958 -58.49518 15974 ft 290 kts 171°
2026-04-21 16:55 7.81985 -58.49139 15976 ft 290 kts 171°
2026-04-21 16:55 7.79990 -58.48753 15973 ft 290 kts 171°
2026-04-21 16:55 7.78013 -58.48372 15974 ft 290 kts 171°
2026-04-21 16:56 7.76062 -58.47995 15822 ft 283 kts 171°
2026-04-21 16:56 7.74151 -58.47629 15598 ft 278 kts 171°
2026-04-21 16:56 7.72272 -58.47267 15389 ft 274 kts 171°
2026-04-21 16:56 7.70411 -58.46909 15176 ft 271 kts 171°
2026-04-21 16:57 7.68574 -58.46554 14964 ft 268 kts 170°
2026-04-21 16:57 7.66730 -58.46198 14756 ft 266 kts 170°
2026-04-21 16:57 7.64917 -58.45850 14554 ft 265 kts 170°
2026-04-21 16:57 7.63107 -58.45500 14345 ft 263 kts 170°
2026-04-21 16:58 7.61317 -58.45156 14140 ft 262 kts 170°
2026-04-21 16:58 7.59543 -58.44815 13940 ft 261 kts 169°
2026-04-21 16:58 7.57751 -58.44469 13732 ft 261 kts 169°
2026-04-21 16:58 7.55959 -58.44124 13501 ft 260 kts 169°
2026-04-21 16:59 7.54192 -58.43784 13274 ft 260 kts 169°
2026-04-21 16:59 7.52407 -58.43439 13041 ft 260 kts 169°
2026-04-21 16:59 7.50635 -58.43099 12760 ft 261 kts 169°
2026-04-21 16:59 7.48845 -58.42754 12486 ft 263 kts 169°
2026-04-21 17:00 7.47044 -58.42408 12214 ft 263 kts 169°
2026-04-21 17:00 7.45252 -58.42064 11948 ft 264 kts 168°
2026-04-21 17:00 7.44040 -58.41830 11771 ft 265 kts 168°
2026-04-21 17:00 7.41620 -58.41365 11418 ft 265 kts 168°
2026-04-21 17:01 7.39818 -58.41017 11159 ft 266 kts 168°
2026-04-21 17:01 7.37989 -58.40666 10894 ft 266 kts 168°
2026-04-21 17:01 7.36191 -58.40323 10638 ft 266 kts 168°
2026-04-21 17:01 7.34359 -58.39969 10381 ft 266 kts 167°
2026-04-21 17:02 7.32544 -58.39616 10124 ft 266 kts 167°
2026-04-21 17:02 7.30754 -58.39278 9882 ft 266 kts 168°
2026-04-21 17:02 7.28905 -58.38928 9587 ft 266 kts 168°
2026-04-21 17:02 7.27095 -58.38582 9325 ft 266 kts 168°
2026-04-21 17:03 7.25289 -58.38239 9053 ft 266 kts 167°
2026-04-21 17:03 7.23477 -58.37890 8778 ft 265 kts 168°
2026-04-21 17:03 7.21665 -58.37541 8499 ft 264 kts 167°
2026-04-21 17:03 7.19877 -58.37190 8233 ft 264 kts 167°
2026-04-21 17:04 7.18073 -58.36833 7967 ft 263 kts 167°
2026-04-21 17:04 7.16260 -58.36485 7716 ft 263 kts 167°
2026-04-21 17:04 7.14474 -58.36146 7442 ft 263 kts 168°
2026-04-21 17:04 7.12682 -58.35802 7177 ft 262 kts 168°
2026-04-21 17:05 7.10880 -58.35460 6917 ft 262 kts 168°
2026-04-21 17:05 7.09109 -58.35119 6707 ft 259 kts 167°
2026-04-21 17:05 7.07357 -58.34779 6508 ft 258 kts 167°
2026-04-21 17:05 7.05608 -58.34442 6297 ft 256 kts 168°
2026-04-21 17:06 7.03820 -58.34097 6062 ft 255 kts 167°
2026-04-21 17:06 7.02103 -58.33766 5838 ft 247 kts 168°
2026-04-21 17:06 7.00477 -58.33458 5618 ft 235 kts 168°
2026-04-21 17:06 6.98892 -58.33156 5400 ft 226 kts 168°
2026-04-21 17:07 6.97892 -58.32964 5307 ft 220 kts 168°
2026-04-21 17:07 6.95914 -58.32581 5108 ft 215 kts 168°
2026-04-21 17:07 6.94451 -58.32297 4968 ft 212 kts 168°
2026-04-21 17:07 6.93012 -58.32021 4828 ft 210 kts 168°
2026-04-21 17:08 6.91592 -58.31749 4689 ft 209 kts 168°
2026-04-21 17:08 6.90168 -58.31476 4543 ft 208 kts 168°
2026-04-21 17:08 6.88739 -58.31203 4391 ft 207 kts 168°
2026-04-21 17:08 6.87339 -58.30933 4221 ft 207 kts 168°
2026-04-21 17:09 6.84516 -58.30395 3983 ft 204 kts 168°
2026-04-21 17:09 6.83118 -58.30134 3882 ft 203 kts 168°
2026-04-21 17:09 6.81732 -58.29870 3788 ft 201 kts 167°
2026-04-21 17:10 6.80356 -58.29601 3674 ft 202 kts 167°
2026-04-21 17:10 6.78974 -58.29329 3515 ft 204 kts 168°
2026-04-21 17:10 6.77570 -58.29059 3348 ft 206 kts 167°
2026-04-21 17:10 6.76295 -58.28503 3188 ft 200 kts 141°
2026-04-21 17:11 6.75195 -58.27627 3010 ft 202 kts 138°
2026-04-21 17:11 6.74115 -58.26734 2831 ft 201 kts 139°
2026-04-21 17:11 6.73038 -58.25855 2658 ft 198 kts 139°
2026-04-21 17:11 6.72011 -58.24970 2487 ft 190 kts 126°
2026-04-21 17:12 6.71660 -58.23739 2322 ft 183 kts 80°
2026-04-21 17:12 6.72033 -58.22546 2167 ft 178 kts 68°
2026-04-21 17:12 6.72550 -58.21467 2056 ft 166 kts 61°
2026-04-21 17:12 6.73135 -58.20535 1981 ft 147 kts 56°
2026-04-21 17:13 6.73713 -58.19742 1942 ft 135 kts 53°
2026-04-21 17:13 6.74241 -58.19054 1987 ft 117 kts 53°
2026-04-21 17:13 6.74739 -58.18423 1970 ft 113 kts 51°
2026-04-21 17:13 6.75221 -58.17800 1960 ft 112 kts 52°
2026-04-21 17:14 6.75702 -58.17184 1941 ft 111 kts 51°
2026-04-21 17:14 6.76178 -58.16565 1849 ft 114 kts 52°
2026-04-21 17:14 6.76689 -58.15917 1691 ft 121 kts 51°
2026-04-21 17:14 6.77210 -58.15228 1491 ft 125 kts 53°
2026-04-21 17:15 6.77740 -58.14508 1252 ft 132 kts 56°
2026-04-21 17:15 6.78281 -58.13755 893 ft 126 kts 53°
2026-04-21 17:15 6.78779 -58.13090 707 ft 112 kts 52°
2026-04-21 17:15 6.79243 -58.12513 458 ft 106 kts 50°
2026-04-21 17:16 6.79715 -58.11909 244 ft 113 kts 53°
2026-04-21 17:16 6.80189 -58.11292 64 ft 110 kts 52°
2026-04-21 17:16 6.80574 -58.10783 8 ft 52 kts 53°
2026-04-21 17:16 6.80740 -58.10559 6 ft 44 kts 54°
2026-04-21 17:17 6.80881 -58.10382 6 ft 17 kts 51°
2026-04-21 17:17 6.80945 -58.10332 8 ft 7 kts 53°
2026-04-21 17:17 6.80941 -58.10325 8 ft 1 kts 148°
2026-04-21 17:17 6.80892 -58.10365 7 ft 15 kts 232°
2026-04-21 17:18 6.80813 -58.10472 6 ft 21 kts 236°
2026-04-21 17:18 6.80766 -58.10510 6 ft 10 kts 168°
2026-04-21 17:18 6.80706 -58.10462 7 ft 11 kts 134°
2026-04-21 17:18 6.80693 -58.10420 7 ft 3 kts 72°
2026-04-21 17:19 6.80698 -58.10410 7 ft 0 kts 52°